Simultaneous Nadir Overpasses (SNOs) Predictions

Prediction of SNOs near US between AQUA and NPP Satellite Orbit:

Table of predicted SNOs near US for the next 10.0 days since TLE Epoch: 5/12/2017
Index Date (AQUA) Time (AQUA) AQUA Lat,Lon Date (NPP) Time (NPP) NPP Lat,Lon Distance(km) Time Diff (sec)
1 05/13/2017 18:16:56 49.99, -80.19 05/13/2017 18:10:15 49.69, -81.69 112.34 401
2 05/13/2017 19:55:49 49.98,-104.91 05/13/2017 19:51:43 49.58,-107.02 157.55 246
3 05/13/2017 21:30:58 36.63,-124.99 05/13/2017 21:29:21 36.15,-127.50 231.05 97
4 05/16/2017 09:24:14 21.06,-114.02 05/16/2017 09:16:11 21.14,-114.41 41.02 483
5 05/19/2017 06:30:21 46.33, -65.08 05/19/2017 06:30:18 46.67, -67.00 151.78 3
6 05/19/2017 08:08:14 49.90, -88.38 05/19/2017 08:10:44 50.36, -90.80 179.67 150
7 05/19/2017 09:47:07 49.90,-113.10 05/19/2017 09:52:11 50.52,-116.10 224.09 304
8 05/21/2017 19:06:22 49.95, -92.55 05/21/2017 19:00:59 49.63, -94.35 134.21 323
9 05/21/2017 20:45:15 49.95,-117.27 05/21/2017 20:42:27 49.52,-119.67 179.51 168




NCC Satellite Simultaneous Nadir Overpasses (SNOs) Prediction Service
